Location: Chassagnes
(44.4047°N, 4.1657°E)
Time: 12:39:05
(UTC+00:00)

CZ-4B R/B - Pass Details

Date: 27 October 2020
Orbit: 808 x 882 km, 99.1° (Epoch: 23 November)

Event Time Altitude Azimuth Distance (km) Brightness Sun altitude
Rises 17:07:33 0° 168° (SSE) 3,456 6.4 -5.7°
Reaches altitude 10° 17:09:57 10° 170° (S) 2,515 5.7 -6.1°
Maximum altitude 17:15:32 76° 256° (WSW) 892 3.5 -7.1°
Drops below altitude 10° 17:21:05 10° 343° (NNW) 2,489 5.7 -8.1°
Sets 17:23:27 0° 345° (NNW) 3,417 6.4 -8.5°
